DW8463 Weather Reports


time (UTC)temp
F
wind
direction
speed
knots
gust
knots
rain 1hr
in
rain 24hr
in
rain mn
in
humidity
%
barometer
mb
20260509180803 60 306 7.0 13.9 0.00 0.00 0.00 36 1006.4
20260509180302 60 306 10.4 18.2 0.00 0.00 0.00 36 1006.4
20260509175802 61 329 11.3 22.6 0.00 0.00 0.00 44 1006.3
20260509175306 61 329 6.1 18.2 0.00 0.00 0.00 44 1006.3
20260509174802 60 321 7.0 17.4 0.00 0.00 0.00 44 1006.2
20260509174302 60 6 10.4 19.1 0.00 0.00 0.00 44 1006.1
20260509173802 60 324 11.3 20.0 0.00 0.00 0.00 44 1006.2
20260509173302 60 330 7.8 19.1 0.00 0.00 0.00 44 1006.2
20260509172802 60 317 11.3 18.2 0.00 0.00 0.00 44 1006.2
20260509172306 60 345 11.3 17.4 0.00 0.00 0.00 44 1006.1
20260509171802 60 307 7.8 14.8 0.00 0.00 0.00 44 1006.1
20260509171303 59 318 10.4 17.4 0.00 0.00 0.00 44 1006.1
20260509170802 60 283 8.7 13.9 0.00 0.00 0.00 44 1006.1
20260509165803 59 318 7.0 19.1 0.00 0.00 0.00 54 1006.2
20260509165306 59 322 8.7 15.6 0.00 0.00 0.00 54 1006.2
20260509164803 59 322 6.1 15.6 0.00 0.00 0.00 54 1006.1
20260509164302 59 354 10.4 14.8 0.00 0.00 0.00 54 1006.1
20260509163802 58 339 7.8 13.9 0.00 0.00 0.00 54 1006.2
20260509163302 59 339 9.6 15.6 0.00 0.00 0.00 54 1006.2
20260509162802 58 332 7.8 17.4 0.00 0.00 0.00 54 1006.0
20260509161803 58 314 8.7 14.8 0.00 0.00 0.00 54 1006.0
20260509161303 58 351 7.8 14.8 0.00 0.00 0.00 54 1005.9
20260509160302 58 315 7.8 14.8 0.00 0.00 0.00 54 1005.9
20260509155802 58 318 9.6 17.4 0.00 0.00 0.00 61 1005.8
20260509155306 57 330 10.4 19.1 0.00 0.00 0.00 61 1005.8
20260509154803 56 338 8.7 15.6 0.00 0.00 0.00 61 1005.8
20260509154303 56 328 11.3 17.4 0.00 0.00 0.00 61 1005.8
20260509153803 56 343 10.4 15.6 0.00 0.00 0.00 61 1005.7
20260509153303 56 332 6.1 13.9 0.00 0.00 0.00 61 1005.7
20260509152305 56 340 6.1 12.2 0.00 0.00 0.00 61 1005.4
20260509151802 56 316 6.1 13.9 0.00 0.00 0.00 61 1005.3
20260509151302 56 329 7.0 14.8 0.00 0.00 0.00 61 1005.2
20260509150803 56 349 7.8 13.0 0.00 0.00 0.00 61 1005.1
20260509150303 56 350 5.2 13.9 0.00 0.00 0.00 61 1005.0
20260509145306 54 320 6.1 17.4 0.00 0.00 0.00 68 1004.8
20260509144302 53 297 8.7 15.6 0.00 0.00 0.00 68 1004.7
20260509143803 54 255 7.0 14.8 0.00 0.00 0.00 68 1004.6
20260509143302 54 322 6.1 12.2 0.00 0.00 0.00 68 1004.5
20260509142803 54 320 9.6 13.9 0.00 0.00 0.00 68 1004.5
20260509142306 54 318 8.7 17.4 0.00 0.00 0.00 68 1004.4
20260509141802 54 312 6.1 17.4 0.00 0.00 0.00 68 1004.3
20260509141302 55 318 8.7 17.4 0.00 0.00 0.00 68 1004.2
20260509140802 55 309 8.7 14.8 0.00 0.00 0.00 68 1004.2
20260509140302 54 313 9.6 18.2 0.00 0.00 0.00 68 1004.1
20260509135802 54 316 11.3 19.1 0.00 0.00 0.00 64 1004.0
20260509135305 54 334 7.8 20.0 0.00 0.00 0.00 64 1003.9
20260509134803 54 322 10.4 17.4 0.00 0.00 0.00 64 1003.7
20260509134303 54 307 5.2 15.6 0.00 0.00 0.00 64 1003.5
20260509133803 55 299 8.7 14.8 0.00 0.00 0.00 64 1003.4
20260509133303 55 304 11.3 18.2 0.00 0.00 0.00 64 1003.4
20260509131803 54 284 5.2 11.3 0.00 0.00 0.00 64 1003.3
20260509131302 54 280 3.5 7.8 0.00 0.00 0.00 64 1003.2
20260509130803 54 278 2.6 7.8 0.00 0.00 0.00 64 1003.2
20260509130303 54 291 4.3 10.4 0.00 0.00 0.00 62 1003.1
20260509125802 54 324 5.2 10.4 0.00 0.00 0.00 54 1003.0
20260509125307 54 324 4.3 10.4 0.00 0.00 0.00 54 1002.8
20260509124803 54 322 4.3 7.8 0.00 0.00 0.00 54 1002.8
20260509124302 53 311 1.7 4.3 0.00 0.00 0.00 54 1002.8
20260509123803 52 306 0.9 4.3 0.00 0.00 0.00 54 1002.8
20260509123302 52 270 0.0 1.7 0.00 0.00 0.00 54 1002.8
20260509122802 51 250 0.9 1.7 0.00 0.00 0.00 54 1002.7
20260509122305 50 253 0.9 2.6 0.00 0.00 0.00 54 1002.8
20260509121302 49 0 0.0 1.7 0.00 0.00 0.00 54 1002.7
20260509120802 48 0 1.7 2.6 0.00 0.00 0.00 54 1002.8
20260509115802 48 0 0.9 1.7 0.00 0.00 0.00 50 1002.5
20260509115306 48 0 0.0 0.9 0.00 0.00 0.00 50 1002.2
20260509114802 48 0 0.0 0.9 0.00 0.00 0.00 50 1002.1
20260509114302 49 0 0.0 0.0 0.00 0.00 0.00 50 1002.0
20260509113802 49 0 0.0 0.9 0.00 0.00 0.00 50 1002.1
20260509113303 49 0 1.7 4.3 0.00 0.00 0.00 50 1002.2
20260509112306 48 0 1.7 4.3 0.00 0.00 0.00 50 1001.9
20260509111303 49 0 0.9 2.6 0.00 0.00 0.00 50 1002.4
20260509110303 48 0 1.7 4.3 0.00 0.00 0.00 52 1002.2
20260509105802 47 0 1.7 4.3 0.00 0.00 0.00 63 1002.2
20260509105305 47 0 1.7 4.3 0.00 0.00 0.00 63 1002.1
20260509104802 46 0 1.7 2.6 0.00 0.00 0.00 63 1002.0
20260509103802 46 0 0.0 2.6 0.00 0.00 0.00 63 1001.6
20260509103302 46 0 0.9 2.6 0.00 0.00 0.00 63 1001.8
20260509102803 46 356 0.9 2.6 0.00 0.00 0.00 63 1001.9
20260509102305 46 0 0.0 0.0 0.00 0.00 0.00 63 1001.8
20260509101803 46 0 0.0 0.9 0.00 0.00 0.00 63 1001.9
20260509100802 47 0 0.9 4.3 0.00 0.00 0.00 63 1001.8
20260509100303 46 0 1.7 4.3 0.00 0.00 0.00 63 1001.7
20260509095803 44 266 4.3 10.4 0.00 0.00 0.00 58 1001.7
20260509095305 42 299 5.2 11.3 0.00 0.00 0.00 58 1001.8
20260509094803 42 233 0.0 0.0 0.00 0.00 0.00 58 1001.0
20260509092305 41 236 0.0 0.0 0.00 0.00 0.00 58 1001.2
20260509091803 41 237 0.0 0.0 0.00 0.00 0.00 58 1001.3
20260509091302 41 236 0.0 0.0 0.00 0.00 0.00 58 1001.2
20260509090803 41 237 0.0 0.0 0.00 0.00 0.00 58 1001.2
20260509090303 41 238 0.0 0.0 0.00 0.00 0.00 58 1001.3
20260509085803 41 239 0.0 0.0 0.00 0.00 0.00 61 1001.2
20260509085306 41 240 0.0 0.0 0.00 0.00 0.00 61 1001.2
20260509084803 41 240 0.0 0.0 0.00 0.00 0.00 61 1001.2
20260509083802 41 240 0.0 0.0 0.00 0.00 0.00 61 1001.2
20260509083303 42 240 0.0 0.0 0.00 0.00 0.00 61 1001.2
20260509082803 42 242 0.0 0.0 0.00 0.00 0.00 61 1001.2
20260509082306 42 241 0.0 0.0 0.00 0.00 0.00 61 1001.3
20260509081802 42 241 0.0 0.0 0.00 0.00 0.00 61 1001.0
20260509081302 42 242 0.0 0.0 0.00 0.00 0.00 61 1000.9
20260509080803 42 242 0.0 0.0 0.00 0.00 0.00 61 1000.9
20260509080302 42 242 0.0 0.0 0.00 0.00 0.00 59 1000.9
20260509075802 42 242 0.0 0.0 0.00 0.00 0.00 48 1001.0
20260509075306 42 242 0.0 0.0 0.00 0.00 0.00 48 1001.0
20260509074803 42 243 0.0 0.0 0.00 0.00 0.00 48 1001.2
20260509074302 43 243 0.0 0.0 0.00 0.00 0.00 48 1001.2
20260509073803 43 242 0.0 0.0 0.00 0.00 0.00 48 1001.2
20260509073302 43 243 0.0 0.0 0.00 0.00 0.00 48 1001.3
20260509072803 43 242 0.0 0.0 0.00 0.00 0.00 48 1001.3
20260509072306 43 243 0.0 0.0 0.00 0.00 0.00 48 1001.4
20260509071803 43 242 0.0 0.0 0.00 0.00 0.00 48 1001.4
20260509071302 43 243 0.0 0.0 0.00 0.00 0.00 48 1001.4
20260509070803 44 242 0.0 0.0 0.00 0.00 0.00 48 1001.5
20260509065803 44 274 0.0 0.0 0.00 0.00 0.00 42 1001.6
20260509064802 45 262 0.0 0.0 0.00 0.00 0.00 42 1001.8
20260509064303 45 262 0.0 0.0 0.00 0.00 0.00 42 1001.8
20260509063803 46 265 0.0 0.0 0.00 0.00 0.00 42 1001.9
20260509063302 46 260 0.0 0.0 0.00 0.00 0.00 42 1001.8
20260509062802 47 259 0.0 0.0 0.00 0.00 0.00 42 1002.0
20260509062305 47 274 0.0 0.0 0.00 0.00 0.00 42 1002.1
20260509061803 48 262 0.0 0.0 0.00 0.00 0.00 42 1001.9
20260509061302 48 0 0.0 0.0 0.00 0.00 0.00 42 1001.9
20260509060802 49 235 0.0 0.0 0.00 0.00 0.00 42 1001.9
20260509060302 50 237 0.0 0.0 0.00 0.00 0.00 42 1002.0
20260509055306 51 240 0.0 0.0 0.00 0.00 0.00 37 1002.1
20260509054802 51 244 0.0 0.9 0.00 0.00 0.00 37 1002.2
20260509053802 51 311 0.0 0.0 0.00 0.00 0.00 37 1002.2
20260509053302 52 341 0.0 0.9 0.00 0.00 0.00 37 1002.2
20260509052803 52 348 0.0 1.7 0.00 0.00 0.00 37 1002.2
20260509052306 53 239 0.9 1.7 0.00 0.00 0.00 37 1002.3
20260509050811 55 267 0.9 1.7 0.00 0.00 0.00 37 1002.3
20260509050302 55 230 0.9 2.6 0.00 0.00 0.00 37 1002.3
20260509045802 56 262 0.9 5.2 0.00 0.00 0.00 34 1002.3
20260509045306 57 290 0.9 2.6 0.00 0.00 0.00 34 1002.3
20260509044302 57 268 1.7 7.0 0.00 0.00 0.00 34 1002.2
20260509043803 57 279 2.6 7.0 0.00 0.00 0.00 34 1002.2
20260509043303 58 289 4.3 7.0 0.00 0.00 0.00 34 1002.1
20260509042803 58 256 2.6 7.0 0.00 0.00 0.00 34 1002.1
20260509041803 58 278 2.6 7.0 0.00 0.00 0.00 34 1002.0
20260509041302 58 267 3.5 6.1 0.00 0.00 0.00 34 1002.0
20260509040803 58 285 4.3 7.8 0.00 0.00 0.00 34 1002.0
20260509040302 58 281 4.3 7.8 0.00 0.00 0.00 34 1002.0
20260509035803 58 277 2.6 7.0 0.00 0.00 0.00 34 1001.9
20260509033802 58 251 1.7 2.6 0.00 0.00 0.00 34 1001.9
20260509033303 58 267 1.7 2.6 0.00 0.00 0.00 34 1001.9
20260509032802 58 279 1.7 7.0 0.00 0.00 0.00 34 1001.8
20260509032306 58 274 2.6 6.1 0.00 0.00 0.00 34 1001.8
20260509031803 58 245 1.7 6.1 0.00 0.00 0.00 34 1001.7
20260509030802 59 267 1.7 2.6 0.00 0.00 0.00 34 1001.6
20260509030302 59 263 1.7 2.6 0.00 0.00 0.00 34 1001.6
20260509025803 58 259 0.9 2.6 0.00 0.00 0.00 29 1001.5
20260509025306 59 262 1.7 4.3 0.00 0.00 0.00 29 1001.5
20260509024802 58 305 1.7 5.2 0.00 0.00 0.00 29 1001.4
20260509024303 58 269 1.7 2.6 0.00 0.00 0.00 29 1001.4
20260509023803 58 260 0.9 6.1 0.00 0.00 0.00 29 1001.3
20260509023303 58 246 0.9 2.6 0.00 0.00 0.00 29 1001.2
20260509022803 58 283 0.0 1.7 0.00 0.00 0.00 29 1001.2
20260509022306 58 285 0.9 2.6 0.00 0.00 0.00 29 1001.2
20260509021803 59 285 0.9 2.6 0.00 0.00 0.00 29 1001.1
20260509021302 59 298 1.7 6.1 0.00 0.00 0.00 29 1001.1
20260509020803 59 317 1.7 2.6 0.00 0.00 0.00 29 1001.0
20260509020303 59 305 0.0 0.9 0.00 0.00 0.00 29 1000.9
20260509015306 60 317 0.0 0.9 0.00 0.00 0.00 25 1000.8
20260509014802 62 318 0.9 2.6 0.00 0.00 0.00 25 1000.7
20260509014302 62 334 0.0 1.7 0.00 0.00 0.00 25 1000.7
20260509013303 64 323 0.9 4.3 0.00 0.00 0.00 25 1000.7
20260509012803 64 294 0.9 4.3 0.00 0.00 0.00 25 1000.7
20260509012306 65 334 2.6 7.8 0.00 0.00 0.00 25 1000.7
20260509011802 65 302 2.6 7.8 0.00 0.00 0.00 25 1000.7
20260509010802 66 282 2.6 10.4 0.00 0.00 0.00 25 1000.6
20260509010302 67 308 2.6 8.7 0.00 0.00 0.00 25 1000.6
20260509005305 68 313 4.3 10.4 0.00 0.00 0.00 24 1000.5
20260509004802 68 308 7.0 13.0 0.00 0.00 0.00 24 1000.5
20260509004303 69 301 4.3 10.4 0.00 0.00 0.00 24 1000.5
20260509003803 69 333 4.3 10.4 0.00 0.00 0.00 24 1000.5
20260509003303 69 289 5.2 12.2 0.00 0.00 0.00 24 1000.4
20260509002803 68 290 2.6 6.1 0.00 0.00 0.00 24 1000.5
20260509002306 69 300 4.3 7.8 0.00 0.00 0.00 24 1000.4
20260509001803 69 276 0.9 7.8 0.00 0.00 0.00 24 1000.4
20260509001303 69 306 6.1 10.4 0.00 0.00 0.00 24 1000.5
20260509000803 69 254 4.3 10.4 0.00 0.00 0.00 24 1000.4
20260509000303 69 286 6.1 10.4 0.00 0.00 0.00 24 1000.4
20260508235306 69 279 5.2 10.4 0.00 0.00 0.00 23 1000.4
20260508234803 70 328 4.3 10.4 0.00 0.00 0.00 23 1000.4
20260508234302 70 312 3.5 12.2 0.00 0.00 0.00 23 1000.5
20260508233802 70 294 5.2 11.3 0.00 0.00 0.00 23 1000.6
20260508233302 70 277 5.2 11.3 0.00 0.00 0.00 23 1000.5
20260508232306 70 287 5.2 12.2 0.00 0.00 0.00 23 1000.6
20260508231802 70 296 4.3 12.2 0.00 0.00 0.00 23 1000.6
20260508230803 71 298 7.8 15.6 0.00 0.00 0.00 23 1000.8
20260508225306 70 242 5.2 10.4 0.00 0.00 0.00 23 1000.8
20260508224803 70 210 5.2 11.3 0.00 0.00 0.00 23 1000.8
20260508224302 71 251 6.1 13.0 0.00 0.00 0.00 23 1000.8
20260508223802 70 266 1.7 8.7 0.00 0.00 0.00 23 1000.9
20260508222306 69 292 5.2 8.7 0.00 0.00 0.00 23 1001.1
20260508221803 70 281 4.3 8.7 0.00 0.00 0.00 23 1001.1
20260508221302 70 314 3.5 10.4 0.00 0.00 0.00 23 1001.2
20260508220803 70 296 4.3 10.4 0.00 0.00 0.00 23 1001.2
20260508220303 70 266 3.5 8.7 0.00 0.00 0.00 23 1001.3
20260508215802 69 187 0.9 10.4 0.00 0.00 0.00 22 1001.4
20260508215306 69 266 5.2 10.4 0.00 0.00 0.00 22 1001.4
20260508214803 69 314 2.6 7.0 0.00 0.00 0.00 22 1001.6
20260508214303 70 231 4.3 8.7 0.00 0.00 0.00 22 1001.6
20260508213803 70 203 2.6 11.3 0.00 0.00 0.00 22 1001.7
20260508212803 69 275 6.1 13.9 0.00 0.00 0.00 22 1001.8
20260508212306 69 272 2.6 5.2 0.00 0.00 0.00 22 1001.9
20260508211803 70 296 1.7 10.4 0.00 0.00 0.00 22 1002.0
20260508210302 71 288 5.2 11.3 0.00 0.00 0.00 22 1002.3
20260508204802 70 302 4.3 13.9 0.00 0.00 0.00 24 1002.5
20260508204303 70 270 4.3 11.3 0.00 0.00 0.00 24 1002.5
20260508203803 69 306 4.3 10.4 0.00 0.00 0.00 24 1002.6
20260508203303 69 222 3.5 11.3 0.00 0.00 0.00 24 1002.7
20260508202802 69 299 5.2 11.3 0.00 0.00 0.00 24 1002.9
20260508202306 69 248 4.3 13.0 0.00 0.00 0.00 24 1002.9
20260508201802 69 274 2.6 7.0 0.00 0.00 0.00 24 1002.9
20260508201303 69 259 8.7 18.2 0.00 0.00 0.00 24 1003.0
20260508195803 69 297 3.5 8.7 0.00 0.00 0.00 24 1003.1
20260508195306 69 216 4.3 10.4 0.00 0.00 0.00 24 1003.2
20260508194802 70 265 5.2 12.2 0.00 0.00 0.00 24 1003.3
20260508194303 69 289 4.3 10.4 0.00 0.00 0.00 24 1003.3
20260508193803 69 274 4.3 12.2 0.00 0.00 0.00 24 1003.4
20260508192803 70 258 5.2 17.4 0.00 0.00 0.00 24 1003.4
20260508192305 71 264 6.1 12.2 0.00 0.00 0.00 24 1003.6
20260508191803 71 295 7.8 13.0 0.00 0.00 0.00 24 1003.7
20260508191303 71 319 5.2 12.2 0.00 0.00 0.00 24 1003.7
20260508190803 70 263 5.2 13.0 0.00 0.00 0.00 24 1003.8
20260508185802 70 252 6.1 10.4 0.00 0.00 0.00 23 1004.0
20260508185306 71 235 6.1 14.8 0.00 0.00 0.00 23 1004.1
20260508184803 71 297 4.3 10.4 0.00 0.00 0.00 23 1004.0
20260508184302 70 222 5.2 10.4 0.00 0.00 0.00 23 1004.1
20260508183803 69 197 3.5 10.4 0.00 0.00 0.00 23 1004.2
20260508182803 69 294 2.6 13.0 0.00 0.00 0.00 23 1004.4
20260508181803 69 289 6.1 10.4 0.00 0.00 0.00 23 1004.5
20260508181303 69 275 5.2 10.4 0.00 0.00 0.00 23 1004.6